Showing default

ARABSAT 7B (BADR 8), 56757

Orbit data source: Space-Track

ARABSAT 7B (BADR 8), 56757 is a payload satellite owned by Arabsat (SA) in GEO that was launched on Sat, 27 May 2023 UTC via an FALCON 9 launch vehicle from the Air Force Eastern Test Range (AFETR). Payload-class satellites include a variety of spacecraft equipped with specific instruments for various scientific and technological missions. These include communications satellites like Starlink; space stations such as the ISS; scientific satellites like the Hubble; Earth observation satellites from companies like Planet Labs, Umbra, and HawkEye 360; GPS; miniature CubeSats for education and research; and military/defense satellites.

Not visible in the next 10 days
Identifier
56757, 2023-075A
Orbit
GEO
Country
Flag of ABAB
Related business
Manufacturer
ADS/Bremen
Mission
Operational Commercial Communications
Bus & Motor
EUROSTAR NEO, PPS-5000
Mass
~4,500 kg wet, ~4,200 kg dry
Launch date (UTC)
2023-05-27 (3 years ago)
Launch vehicle
FALCON 9
Launch site
Air Force Eastern Test Range (AFETR)
Object type
Payload
Rocket body
Debris
Shape & HBR
Box + 2 Pan, 20.0 m
Radar Cross Section
55.239 m², Large (>1 m²)

Expand to show TLE details & history
Last TLE update: 11 hours ago

TLE from 11 hours ago
0 ARABSAT 7B (BADR 8)
1 56757U 23075A   26202.26506065  .00000145  00000-0  00000-0 0  9999
2 56757   0.0741  31.5330 0003457   1.2746  27.6312  1.00271628 11457
Epoch: 2026-07-21T06:21Z
TLE epoch observation values (Epoch: 2026-07-21T06:21:41.240Z)
Latitude
0.0399°
Longitude
26.012°
Altitude
35,773.259 km
Speed
3.076 km/s
True Right ascension
04h 01m 53s
True Declination
0° 02' 23"
Sunlit
Object was in daylight at epoch
Visualization orbit readout
Latitude
Unknown
Longitude
Unknown
Altitude
Unknown
Speed
Unknown
Apparent Right ascension
Unknown
Apparent Declination
Unknown
Sunlit
N/A
Visualization observer readout
Local Sidereal Time
06:02:03
Azimuth
Unknown
Elevation
Unknown
Doppler factor
Unknown
Orbital elements
Apogee altitude
35,802.286 km
Perigee altitude
35,773.133 km
Semi-major axis
42,165.846 km
Eccentricity
0.00035
Inclination
0.0741°
RAAN
31.533°
Arg. of periapsis
1.2746°
True anomaly
27.64958°
Mean anomaly
27.6312°
Eccentric anomaly
27.64039°
Mean motion
0.25067 °/min
Orbital period
1,436.15 mins
BSTAR
0
Loading maneuver chart data...
Computing Atmospheric mass density...
Loading historical data...
Loading historical data...
Loading historical data...
Loading historical data...
Loading historical data...
Loading historical data...
Loading historical data...
Other satellites on launch #75 in the year 2023 (2023-05-27 UTC)

Documentation

Showing up to 5 results
|